Change the Weather History Date:

Monday, January 21, 2013

  Actual Average Record
Temperature  
Mean Temperature 24 °F -  
Max Temperature 30 °F 30 °F 59 °F (2006)
Min Temperature 19 °F 14 °F -11 °F (1983)
Degree Days  
Heating Degree Days 40    
Moisture  
Dew Point 14 °F    
Average Humidity 68    
Maximum Humidity 100    
Minimum Humidity 40    
Precipitation  
Precipitation 0.00 in - - ()
Sea Level Pressure  
Sea Level Pressure 29.98 in    
Wind  
Wind Speed 7 mph (WSW)    
Max Wind Speed 17 mph    
Max Gust Speed 29 mph    
Visibility 13 miles    
Events Snow    
Averages and records for this station are not official NWS values.
T = Trace of Precipitation, MM = Missing Value Source: NWS Daily Summary

Daily Weather History Graph

Daily Weather History Graph

Search for Another Location

Airport or City:

Trip Planner

Search our weather history database for the weather conditions in past years. The results will help you decide how hot, cold, wet, or windy it might be!

Date:

Astronomy

Jan. 21, 2013 Rise Set
Actual Time 7:17 AM EST 4:58 PM EST
Civil Twilight 6:46 AM EST 5:29 PM EST
Nautical Twilight 6:13 AM EST 6:02 PM EST
Astronomical Twilight 5:40 AM EST 6:35 PM EST
Moon 12:36 PM EST (1/21) 2:43 AM EST (1/21)
Length of Visible Light 10h 42m
Length of Day
9h 41m
Waxing Gibbous, 75% of the Moon is Illuminated
Jan 21
Waxing Gibbous
Jan 26
Full
Feb 3
Last Quarter
Feb 10
New
Feb 17
First Quarter

Hourly Weather History & Observations

Time (EST) Temp. Windchill Dew Point Humidity Pressure Visibility Wind Dir Wind Speed Gust Speed Precip Events Conditions
12:45 AM 24.8 °F 11.5 °F 8.6 °F 50% 30.02 in 10.0 mi WNW 17.3 mph 28.8 mph N/A   Clear
1:45 AM 24.8 °F 17.9 °F 8.6 °F 50% 30.04 in 10.0 mi Variable 5.8 mph - N/A   Clear
3:45 AM 21.2 °F 14.9 °F 12.2 °F 68% 30.05 in 10.0 mi Variable 4.6 mph - N/A   Clear
4:45 AM 21.2 °F 14.9 °F 10.4 °F 63% 30.05 in 10.0 mi Variable 4.6 mph - N/A   Clear
5:45 AM 19.4 °F 9.5 °F 12.2 °F 74% 30.04 in 10.0 mi WNW 8.1 mph - N/A   Mostly Cloudy
6:45 AM 21.2 °F - 12.2 °F 68% 30.06 in 10.0 mi Calm Calm - N/A   Mostly Cloudy
7:45 AM 21.2 °F - 14.0 °F 74% 30.05 in 10.0 mi Calm Calm - N/A   Mostly Cloudy
8:45 AM 23.0 °F 17.0 °F 14.0 °F 68% 30.07 in 15.0 mi WSW 4.6 mph - N/A   Overcast
9:45 AM 30.2 °F - 8.6 °F 40% 30.07 in 20.0 mi Calm Calm - N/A   Mostly Cloudy
10:45 AM 24.8 °F 16.9 °F 12.2 °F 59% 30.55 in 20.0 mi SSW 6.9 mph - N/A   Mostly Cloudy
11:45 AM 26.6 °F 21.2 °F 12.2 °F 55% 30.00 in 20.0 mi South 4.6 mph - N/A   Mostly Cloudy
12:45 PM 26.6 °F 21.2 °F 12.2 °F 55% 29.96 in 20.0 mi Variable 4.6 mph - N/A   Mostly Cloudy
1:45 PM 28.4 °F 21.2 °F 12.2 °F 51% 29.93 in 20.0 mi SSW 6.9 mph - N/A   Overcast
2:45 PM 28.4 °F 21.2 °F 14.0 °F 55% 29.91 in 20.0 mi SW 6.9 mph - N/A   Overcast
3:45 PM 26.6 °F 16.2 °F 14.0 °F 59% 29.89 in 20.0 mi SSW 11.5 mph - N/A   Overcast
4:45 PM 26.6 °F 16.2 °F 17.6 °F 69% 29.88 in 10.0 mi SSW 11.5 mph - N/A   Overcast
5:45 PM 26.6 °F 19.1 °F 17.6 °F 69% 29.88 in 10.0 mi WSW 6.9 mph - N/A   Overcast
6:45 PM 24.8 °F 17.9 °F 19.4 °F 80% 29.89 in 5.0 mi West 5.8 mph - N/A Snow Light Snow
7:45 PM 23.0 °F 15.8 °F 21.2 °F 93% 29.88 in 10.0 mi West 5.8 mph - N/A   Overcast
8:45 PM 23.0 °F - 21.2 °F 93% 29.86 in 10.0 mi Calm Calm - N/A   Mostly Cloudy
9:45 PM 21.2 °F - 21.2 °F 100% 29.84 in 10.0 mi Calm Calm - N/A   Mostly Cloudy
10:45 PM 21.2 °F 12.6 °F 19.4 °F 93% 29.82 in 10.0 mi WSW 6.9 mph - N/A   Scattered Clouds
11:45 PM 21.2 °F 9.5 °F 15.8 °F 80% 29.81 in 10.0 mi West 11.5 mph - N/A   Clear